Weather History for KPSK - November, 2012

Change the Weather History Date:

Sunday, November 4, 2012

  Actual Average (KBCB) Record (KBCB)
Temperature  
Mean Temperature 42 °F 47 °F  
Max Temperature 48 °F 60 °F 79 °F (2003)
Min Temperature 37 °F 34 °F 19 °F (1966)
Degree Days  
Heating Degree Days 22 18  
Month to date heating degree days 70  
Since 1 July heating degree days 597  
Cooling Degree Days 0 0  
Month to date cooling degree days 0  
Year to date cooling degree days 573  
Moisture  
Dew Point 39 °F    
Average Humidity 88    
Maximum Humidity 100    
Minimum Humidity 62    
Precipitation  
Precipitation 0.03 in 0.10 in 1.11 in (2004)
Month to date precipitation 0.39  
Year to date precipitation 35.46  
Snow  
Snow 0.00 in - - ()
Month to date snowfall  
Since 1 July snowfall  
Since 1 September snowfall  
Snow Depth -    
Sea Level Pressure  
Sea Level Pressure 30.04 in    
Wind  
Wind Speed 2 mph (NNW)    
Max Wind Speed 7 mph    
Max Gust Speed -    
Visibility 7 miles    
Events Rain    
T = Trace of Precipitation, MM = Missing Value Source: NWS Daily Summary

Daily Weather History Graph

Daily Weather History Graph

Search for Another Location

Airport or City:

Trip Planner

Search our weather history database for the weather conditions in past years. The results will help you decide how hot, cold, wet, or windy it might be!

Date:

Astronomy

Nov. 04, 2012 Rise Set
Actual Time 6:50 AM EST 5:21 PM EST
Civil Twilight 6:23 AM EST 5:48 PM EST
Nautical Twilight 5:52 AM EST 6:19 PM EST
Astronomical Twilight 5:22 AM EST 6:49 PM EST
Moon 9:59 PM EST (11/4) 11:31 AM EST (11/4)
Length of Visible Light 11h 25m
Length of Day
10h 30m
Waning Gibbous, 72% of the Moon is Illuminated
Nov 4
Waning Gibbous
Nov 6
Last Quarter
Nov 13
New
Nov 20
First Quarter
Nov 28
Full

Hourly Weather History & Observations

Time (EST) Temp. Windchill Dew Point Humidity Pressure Visibility Wind Dir Wind Speed Gust Speed Precip Events Conditions
12:15 AM 41.0 °F 39.0 °F 41.0 °F 100% 30.08 in 7.0 mi West 3.5 mph - 0.01 in Rain Light Rain
12:35 AM 42.8 °F - 42.8 °F 100% 30.07 in 4.0 mi Calm Calm - 0.01 in Rain Rain
12:55 AM 42.8 °F - 42.8 °F 100% 30.05 in 4.0 mi Calm Calm - 0.02 in Rain Rain
1:15 AM 42.8 °F - 42.8 °F 100% 30.06 in 7.0 mi Calm Calm - N/A Rain Light Rain
1:35 AM 42.8 °F - 42.8 °F 100% 30.06 in 7.0 mi Calm Calm - 0.01 in Rain Light Rain
1:55 AM 42.8 °F - 42.8 °F 100% 30.06 in 4.0 mi Calm Calm - N/A Rain Light Rain
1:15 AM 42.8 °F - 42.8 °F 100% 30.05 in 7.0 mi Calm Calm - N/A   Overcast
1:35 AM 42.8 °F - 42.8 °F 100% 30.05 in 7.0 mi Calm Calm - N/A   Overcast
1:55 AM 42.8 °F - 42.8 °F 100% 30.04 in 7.0 mi Calm Calm - 0.01 in Rain Light Rain
2:15 AM 42.8 °F - 42.8 °F 100% 30.04 in 4.0 mi Calm Calm - N/A   Overcast
2:35 AM 42.8 °F - 42.8 °F 100% 30.04 in 4.0 mi Calm Calm - N/A Rain Light Rain
2:55 AM 42.8 °F - 42.8 °F 100% 30.03 in 3.0 mi Calm Calm - N/A   Overcast
3:15 AM 42.8 °F 41.1 °F 42.8 °F 100% 30.03 in 4.0 mi East 3.5 mph - N/A   Overcast
3:35 AM 42.8 °F 41.1 °F 42.8 °F 100% 30.02 in 3.0 mi East 3.5 mph - N/A   Overcast
3:55 AM 42.8 °F - 42.8 °F 100% 30.04 in 3.0 mi Calm Calm - N/A   Overcast
4:15 AM 42.8 °F - 42.8 °F 100% 30.04 in 4.0 mi Calm Calm - N/A   Overcast
4:35 AM 42.8 °F - 42.8 °F 100% 30.04 in 4.0 mi Calm Calm - N/A   Overcast
4:55 AM 42.8 °F - 42.8 °F 100% 30.04 in 5.0 mi Calm Calm - N/A   Overcast
5:15 AM 42.8 °F - 42.8 °F 100% 30.05 in 4.0 mi Calm Calm - N/A   Overcast
5:35 AM 42.8 °F - 42.8 °F 100% 30.04 in 3.0 mi Calm Calm - N/A   Overcast
5:55 AM 41.0 °F - 41.0 °F 100% 30.04 in 3.0 mi Calm Calm - N/A   Overcast
6:15 AM 41.0 °F - 41.0 °F 100% 30.03 in 2.5 mi Calm Calm - N/A   Overcast
6:35 AM 39.2 °F - 39.2 °F 100% 30.04 in 4.0 mi Calm Calm - N/A   Overcast
6:55 AM 39.2 °F - 39.2 °F 100% 30.04 in 3.0 mi Calm Calm - N/A   Overcast
7:15 AM 39.2 °F 37.0 °F 39.2 °F 100% 30.04 in 4.0 mi ENE 3.5 mph - N/A   Overcast
7:35 AM 39.2 °F - 39.2 °F 100% 30.05 in 4.0 mi Calm Calm - N/A   Overcast
7:55 AM 39.2 °F - 39.2 °F 100% 30.06 in 2.5 mi Calm Calm - N/A   Overcast
8:15 AM 41.0 °F - 41.0 °F 100% 30.06 in 1.2 mi Calm Calm - N/A   Overcast
8:35 AM 41.0 °F - 41.0 °F 100% 30.06 in 0.8 mi Calm Calm - N/A   Overcast
8:55 AM 41.0 °F - 41.0 °F 100% 30.06 in 1.0 mi Calm Calm - N/A   Overcast
9:15 AM 41.0 °F - 41.0 °F 100% 30.06 in 3.0 mi Calm Calm - N/A   Overcast
9:35 AM 41.0 °F - 41.0 °F 100% 30.06 in 3.0 mi Calm Calm - N/A   Overcast
9:55 AM 41.0 °F - 41.0 °F 100% 30.06 in 4.0 mi Calm Calm - N/A   Overcast
10:15 AM 42.8 °F - 42.8 °F 100% 30.06 in 7.0 mi Calm Calm - N/A   Overcast
10:35 AM 44.6 °F - 44.6 °F 100% 30.05 in 7.0 mi Calm Calm - N/A   Overcast
10:55 AM 44.6 °F - 44.6 °F 100% 30.05 in 10.0 mi Calm Calm - N/A   Overcast
11:15 AM 46.4 °F - 44.6 °F 93% 30.04 in 10.0 mi Calm Calm - N/A   Scattered Clouds
11:35 AM 46.4 °F - 42.8 °F 87% 30.04 in 10.0 mi Calm Calm - N/A   Mostly Cloudy
11:55 AM 46.4 °F - 42.8 °F 87% 30.03 in 10.0 mi Calm Calm - N/A   Overcast
12:15 PM 48.2 °F - 44.6 °F 87% 30.03 in 10.0 mi Calm Calm - N/A   Overcast
12:35 PM 48.2 °F - 44.6 °F 87% 30.02 in 10.0 mi Calm Calm - N/A   Mostly Cloudy
12:55 PM 48.2 °F - 42.8 °F 82% 30.01 in 10.0 mi Calm Calm - N/A   Mostly Cloudy
1:15 PM 48.2 °F - 42.8 °F 82% 30.01 in 10.0 mi Calm Calm - N/A   Overcast
1:35 PM 48.2 °F - 42.8 °F 82% 30.01 in 10.0 mi North 4.6 mph - N/A   Overcast
1:55 PM 48.2 °F - 41.0 °F 76% 30.01 in 10.0 mi North 4.6 mph - N/A   Overcast
2:15 PM 48.2 °F - 41.0 °F 76% 30.01 in 10.0 mi North 3.5 mph - N/A   Overcast
2:35 PM 48.2 °F - 41.0 °F 76% 30.00 in 10.0 mi North 4.6 mph - N/A   Overcast
2:55 PM 48.2 °F - 39.2 °F 71% 30.01 in 10.0 mi NNW 4.6 mph - N/A   Overcast
3:15 PM 48.2 °F - 39.2 °F 71% 30.01 in 10.0 mi NNW 5.8 mph - N/A   Mostly Cloudy
3:35 PM 48.2 °F - 39.2 °F 71% 30.01 in 10.0 mi NNW 3.5 mph - N/A   Overcast
3:55 PM 48.2 °F - 39.2 °F 71% 30.01 in 10.0 mi NNW 4.6 mph - N/A   Overcast
4:15 PM 48.2 °F - 37.4 °F 66% 30.02 in 10.0 mi NNW 5.8 mph - N/A   Overcast
4:35 PM 46.4 °F 45.2 °F 35.6 °F 66% 30.02 in 10.0 mi North 3.5 mph - N/A   Overcast
4:55 PM 46.4 °F 45.2 °F 35.6 °F 66% 30.02 in 10.0 mi North 3.5 mph - N/A   Overcast
5:15 PM 46.4 °F 42.9 °F 33.8 °F 62% 30.03 in 10.0 mi NNW 6.9 mph - N/A   Overcast
5:35 PM 44.6 °F 41.4 °F 33.8 °F 66% 30.03 in 10.0 mi NNW 5.8 mph - N/A   Overcast
5:55 PM 44.6 °F 40.7 °F 33.8 °F 66% 30.04 in 10.0 mi North 6.9 mph - N/A   Overcast
6:15 PM 44.6 °F 42.2 °F 33.8 °F 66% 30.04 in 10.0 mi NNW 4.6 mph - N/A   Overcast
6:35 PM 44.6 °F 40.7 °F 33.8 °F 66% 30.04 in 10.0 mi NW 6.9 mph - N/A   Overcast
6:55 PM 44.6 °F 40.7 °F 33.8 °F 66% 30.05 in 10.0 mi NNW 6.9 mph - N/A   Overcast
7:15 PM 42.8 °F 38.6 °F 33.8 °F 70% 30.05 in 10.0 mi NW 6.9 mph - N/A   Mostly Cloudy
7:35 PM 42.8 °F 40.1 °F 33.8 °F 70% 30.05 in 10.0 mi NW 4.6 mph - N/A   Scattered Clouds
7:55 PM 41.0 °F - 33.8 °F 76% 30.05 in 10.0 mi Calm Calm - N/A   Clear
8:15 PM 41.0 °F - 33.8 °F 76% 30.05 in 10.0 mi Calm Calm - N/A   Clear
8:35 PM 39.2 °F - 33.8 °F 81% 30.06 in 10.0 mi Calm Calm - N/A   Clear
8:55 PM 37.4 °F 32.8 °F 32.0 °F 81% 30.06 in 10.0 mi WNW 5.8 mph - N/A   Clear
9:15 PM 37.4 °F 33.8 °F 33.8 °F 87% 30.06 in 10.0 mi West 4.6 mph - N/A   Clear
9:35 PM 37.4 °F - 33.8 °F 87% 30.06 in 10.0 mi Calm Calm - N/A   Clear
9:55 PM 39.2 °F 37.0 °F 32.0 °F 75% 30.07 in 10.0 mi West 3.5 mph - N/A   Clear
10:15 PM 39.2 °F 35.9 °F 32.0 °F 75% 30.07 in 10.0 mi NW 4.6 mph - N/A   Clear
10:35 PM 39.2 °F 35.9 °F 32.0 °F 75% 30.06 in 10.0 mi NW 4.6 mph - N/A   Clear
10:55 PM 39.2 °F 37.0 °F 30.2 °F 70% 30.06 in 10.0 mi NNW 3.5 mph - N/A   Clear